Location: *
(45.1333°S, 169.6333°W)
Time: 19:33:41
(UTC+00:00)

COSMOS 2406 - Pass Details

Date: 26 May 2022
Orbit: 843 x 864 km, 71.0° (Epoch: 06 July)

Event Time Altitude Azimuth Distance (km) Brightness Sun altitude
Rises 05:19:03 0° 340° (NNW) 3,406 6.9 -15.4°
Reaches altitude 10° 05:21:29 10° 340° (NNW) 2,475 6.1 -15.8°
Maximum altitude 05:27:10 81° 66° (ENE) 870 3.1 -16.8°
Enters shadow 05:32:05 15° 152° (SSE) 2,184 5.0 -17.6°
